Rochester/St. Mary\'s Hospita, MN
on Wednesday, April 30, 2014

Wednesday
Previous Day Next Day
Daily Summary
 ActualAverage (KRST)Record (KRST)
Temperature
Mean Temperature °F °F  
Max Temperature 41°F 61°F 90°F (1952)
Min Temperature 32°F 39°F 11°F (1956)
Degree Days
Heating Degree Days 28    
Moisture
Dew Point 35°F   
Average Humidity 94    
Maximum Humidity 99    
Minimum Humidity 85    
Precipitation
Precipitation 0.07 in in in ()
Wind
Wind Speed 8 mph   
Max Wind Speed 13 mph   
Max Gust Speed 21 mph   
Visibility 8 miles   
Events     
Averages and records for this station are not official NWS values.
Key: T is trace of precipitation, MM is missing value
Source: NWS Daily Summary
Seasonal Weather Averages
Time(CDT)TemperatureDew PointHumidity Pressure Visibility Wind DirectionWind SpeedGust SpeedPrecipitationEvents Conditions
12:12 AM 32.4°F 32.0°F 99% 29.68 in 4.0 miles NW 8.1 mph - N/A   Overcast
12:32 AM 32.5°F 32.0°F 98% 29.68 in 5.0 miles NW 8.1 mph - N/A   Overcast
12:53 AM 32.5°F 32.0°F 98% 29.68 in 10.0 miles NW 6.9 mph - N/A   Overcast
1:12 AM 32.9°F 32.2°F 97% 29.68 in 10.0 miles NW 8.1 mph - N/A   Overcast
1:32 AM 33.1°F 32.5°F 98% 29.68 in 7.0 miles NW 5.8 mph - N/A   Overcast
1:53 AM 33.1°F 32.5°F 98% 29.68 in 7.0 miles WNW 6.9 mph - N/A   Overcast
2:12 AM 33.3°F 32.9°F 99% 29.67 in 7.0 miles NW 6.9 mph - N/A   Overcast
2:32 AM 33.4°F 32.9°F 98% 29.67 in 7.0 miles NW 5.8 mph - N/A   Overcast
2:53 AM 33.4°F 32.9°F 98% 29.68 in 5.0 miles NW 9.2 mph - N/A   Overcast
3:12 AM 33.4°F 32.9°F 98% 29.68 in 5.0 miles NNW 5.8 mph - N/A   Overcast
3:32 AM 33.8°F 32.9°F 96% 29.68 in 5.0 miles NW 6.9 mph - N/A   Overcast
3:53 AM 33.6°F 32.9°F 97% 29.68 in 4.0 miles NW 6.9 mph - N/A   Overcast
4:12 AM 33.8°F 33.1°F 97% 29.68 in 4.0 miles NW 6.9 mph - N/A   Overcast
4:32 AM 33.6°F 33.1°F 98% 29.68 in 4.0 miles NW 5.8 mph - N/A   Overcast
4:53 AM 33.4°F 32.9°F 98% 29.68 in 5.0 miles NW 6.9 mph - N/A   Overcast
5:12 AM 33.4°F 32.9°F 98% 29.68 in 7.0 miles NW 8.1 mph - N/A   Overcast
5:32 AM 33.8°F 33.3°F 98% 29.69 in 7.0 miles NW 8.1 mph - N/A   Overcast
6:12 AM 34.0°F 33.4°F 98% 29.69 in 7.0 miles NW 5.8 mph - N/A   Overcast
6:32 AM 34.0°F 33.4°F 98% 29.69 in 7.0 miles NW 6.9 mph - N/A   Overcast
6:53 AM 34.5°F 34.0°F 98% 29.69 in 7.0 miles NW 8.1 mph - N/A   Overcast
7:12 AM 34.7°F 34.2°F 98% 29.68 in 7.0 miles NW 9.2 mph - N/A   Overcast
7:32 AM 34.7°F 34.2°F 98% 29.68 in 7.0 miles NW 6.9 mph - N/A   Overcast
7:52 AM 34.9°F 34.5°F 99% 29.69 in 10.0 miles NNW 5.8 mph - N/A   Overcast
8:12 AM 35.2°F 34.7°F 98% 29.69 in 10.0 miles NW 6.9 mph - N/A   Overcast
8:32 AM 35.2°F 34.7°F 98% 29.68 in 10.0 miles NW 10.4 mph - N/A   Overcast
8:52 AM 35.6°F 34.7°F 97% 29.69 in 10.0 miles NW 6.9 mph - N/A   Overcast
9:12 AM 35.6°F 34.7°F 97% 29.70 in 10.0 miles NNW 8.1 mph - N/A   Overcast
9:32 AM 35.8°F 34.7°F 96% 29.70 in 10.0 miles NW 8.1 mph - N/A   Overcast
10:12 AM 36.1°F 34.7°F 94% 29.70 in 10.0 miles NW 8.1 mph - N/A   Overcast
10:33 AM 36.9°F 35.2°F 94% 29.70 in 10.0 miles NW 9.2 mph - N/A   Overcast
10:52 AM 37.4°F 35.2°F 92% 29.70 in 10.0 miles NW 9.2 mph - N/A   Overcast
11:12 AM 37.2°F 35.2°F 93% 29.70 in 10.0 miles WNW 10.4 mph 17.3 mph N/A   Overcast
11:33 AM 37.4°F 35.4°F 93% 29.71 in 10.0 miles WNW 6.9 mph - N/A   Overcast
11:52 AM 37.4°F 35.2°F 92% 29.71 in 10.0 miles NW 9.2 mph - N/A   Overcast
12:12 PM 37.9°F 35.6°F 91% 29.71 in 10.0 miles NNW 6.9 mph - N/A   Overcast
12:33 PM 38.5°F 35.6°F 89% 29.70 in 10.0 miles NW 8.1 mph - N/A   Overcast
12:52 PM 38.8°F 35.8°F 89% 29.70 in 10.0 miles WNW 11.5 mph 17.3 mph N/A   Overcast
1:12 PM 39.2°F 35.8°F 88% 29.71 in 10.0 miles NNW 4.6 mph - N/A   Overcast
1:33 PM 39.9°F 36.0°F 86% 29.71 in 10.0 miles NW 4.6 mph - N/A   Overcast
1:52 PM 39.9°F 35.8°F 85% 29.71 in 10.0 miles NNW 6.9 mph - N/A   Overcast
2:12 PM 40.1°F 36.0°F 85% 29.71 in 10.0 miles NW 6.9 mph - N/A   Overcast
2:33 PM 40.1°F 36.0°F 85% 29.71 in 10.0 miles NW 10.4 mph - N/A   Overcast
2:52 PM 40.5°F 36.1°F 85% 29.71 in 10.0 miles NW 8.1 mph 16.1 mph N/A   Overcast
3:12 PM 40.3°F 36.0°F 85% 29.71 in 10.0 miles NW 8.1 mph 17.3 mph N/A   Overcast
3:33 PM 40.5°F 36.5°F 86% 29.71 in 10.0 miles NW 6.9 mph - N/A   Overcast
3:52 PM 40.5°F 36.5°F 86% 29.72 in 10.0 miles NW 9.2 mph - N/A   Overcast
4:12 PM 40.3°F 36.1°F 85% 29.72 in 10.0 miles NNW 8.1 mph - N/A   Overcast
4:33 PM 40.6°F 36.5°F 85% 29.71 in 10.0 miles NNW 8.1 mph - N/A   Overcast
4:52 PM 41.0°F 36.9°F 85% 29.72 in 10.0 miles NW 6.9 mph - N/A   Overcast
5:12 PM 40.3°F 37.4°F 89% 29.71 in 10.0 miles NNW 10.4 mph - N/A   Overcast
5:33 PM 40.3°F 37.4°F 89% 29.71 in 10.0 miles NNW 9.2 mph - N/A   Overcast
5:52 PM 40.3°F 37.6°F 90% 29.72 in 5.0 miles NNW 4.6 mph - N/A   Overcast
6:12 PM 40.1°F 37.8°F 91% 29.72 in 5.0 miles NW 9.2 mph - N/A   Overcast
6:32 PM 40.1°F 38.3°F 93% 29.72 in 5.0 miles NW 8.1 mph - N/A   Overcast
6:52 PM 40.1°F 38.3°F 93% 29.72 in 5.0 miles NW 6.9 mph - N/A   Overcast
7:12 PM 39.7°F 38.3°F 95% 29.72 in 5.0 miles NW 5.8 mph - N/A   Overcast
7:32 PM 39.7°F 38.5°F 95% 29.72 in 4.0 miles NNW 5.8 mph - N/A   Overcast
7:52 PM 39.7°F 38.5°F 95% 29.72 in 5.0 miles NW 8.1 mph - N/A   Overcast
8:12 PM 39.7°F 38.5°F 95% 29.72 in 5.0 miles NNW 4.6 mph - N/A   Overcast
8:32 PM 39.4°F 38.1°F 95% 29.72 in 5.0 miles NW 10.4 mph 17.3 mph 0.01 in   Overcast
8:52 PM 39.2°F 38.1°F 96% 29.72 in 5.0 miles NW 9.2 mph - 0.01 in   Overcast
9:13 PM 39.0°F 37.9°F 96% 29.72 in 5.0 miles NW 8.1 mph 17.3 mph N/A   Overcast
9:32 PM 39.2°F 37.9°F 95% 29.72 in 7.0 miles NW 8.1 mph - 0.01 in   Overcast
9:52 PM 39.0°F 37.8°F 95% 29.72 in 10.0 miles NW 8.1 mph - 0.02 in   Overcast
10:13 PM 38.5°F 37.0°F 95% 29.72 in 10.0 miles NW 12.7 mph 18.4 mph 0.01 in   Overcast
10:32 PM 38.5°F 36.7°F 93% 29.72 in 10.0 miles NW 11.5 mph 19.6 mph 0.02 in   Overcast
10:52 PM 38.5°F 36.7°F 93% 29.71 in 10.0 miles NW 11.5 mph 17.3 mph 0.02 in   Overcast
11:12 PM 38.5°F 36.7°F 93% 29.71 in 10.0 miles NW 8.1 mph 18.4 mph N/A   Overcast
11:32 PM 38.3°F 36.5°F 93% 29.70 in 10.0 miles NW 10.4 mph 20.7 mph 0.01 in   Overcast
11:53 PM 38.3°F 36.5°F 93% 29.70 in 10.0 miles NW 10.4 mph 19.6 mph 0.02 in   Overcast
Astronomy
Sunrise:06:02 AM (CDT) Moon Rise:07:03 AM (CDT)4/30
Sunset:08:12 PM (CDT) Moon Set:09:53 PM (CDT)4/30
Moon Phase
Apr. 30 May. 07 May. 14 May. 21 May. 28

Copyright © 2017 The Weather Underground, Inc.